FENGYUN 1C DEB

Satellite information

Favourite Embed

Satellite Type and Status

DEBRISIN ORBIT

Key statistics

Satellite FENGYUN 1C DEB at a glance.

Uptime

9494

Days in orbit

Revolutions

≈ 14.2

Per day

Orbit

SSO

Sun Synchronous Orbit

Inclination

98.5

Latest

Satellite identification and parameters

Extended collection of information and parameters for FENGYUN 1C DEB.

Object identification

Identified? True

Debris? True

Object name: FENGYUN 1C DEB

International designator: 1999-025AXL

Object number (NORAD): 30874

Object ID (CCSDS): 30874

Country: PEOPLES REPUBLIC OF CHINA (PRC)

Current information (Y/N): Y

RCS size: SMALL

Orbital parameters

Period: 101.467 minutes

Inclination: 98.509 deg

SMA: 7206.239 km

Apoapsis: 857.339 km

Periapsis: 798.869 km

RAAN: 166.3135 deg

Eccentricy: 0.0040569

Argument of periapsis: 316.9535 deg

Mean anomaly: 168.0067 deg

Mean motion: 14.19187567 rev/day

Mean motion (dot): 0.00001059 rev/day2

B* drag term: 0.00052141 1/REarth

Two-line elements (TLE)

Creation date: May 7, 2025, 3:14 a.m.

Reference frame: TEME

Reference center: EARTH

Epoch: May 6, 2025, 9:51 p.m. UTC

TLE line 0: 0 FENGYUN 1C DEB

TLE line 1: 1 30874U 99025AXL 25126.91097285 .00001059 00000-0 52141-3 0 9995

TLE line 2: 2 30874 98.5090 166.3135 0040569 316.9535 168.0067 14.19187567939026

Live tracking on map

Real-time ground track for satellite FENGYUN 1C DEB.

In-orbit conjunctions

A list of the most updated potential collisions computed for object FENGYUN 1C DEB.

Target Orbit TCA Probability of collision Miss distance Type
COSMOS 2237 LEO 2024-12-22 04:29:03 0.0001149727 89.0 (m) PAYLOAD
CZ-6A DEB LEO 2024-11-01 18:59:17 0.0001939256 330.0 (m) DEBRIS
CZ-4 DEB SSO 2024-05-26 22:29:18 0.0001160542 238.0 (m) DEBRIS

Associated space launch

Chinese polar orbiting meteorological satellite

FENGYUN 1C DEB was lifted into orbit during the mission ‘Long March 4B | Feng Yun 1C’, on board a Long March 4B space rocket.

The launch took place on May 10, 1999, 1:33 a.m. from Launch Complex 7.

For more information about the launch, click the button.

Launch to space Long March 4B | Feng Yun 1C
Long March 4B | Feng Yun 1C

Agency: N/A

Status: Launch Successful

Launch date: May 10, 1999, 1:33 a.m. UTC

Rocket: Long March 4B

Launch pad: Launch Complex 7

Location: Taiyuan Satellite Launch Center, People's Republic of China

...

Latest news about this satellite

There are no fresh news available about this satellite. Check back as we update our databases every day.


Newsletter sign-up

Weekly statistics, charts and insights to help you stay on top of the space industry.